Home > Time Zones > World Clock > Weather > U.S.A. > Bend > Past weeks

Flag for U.S.A. Weather past 2 weeks in Bend, Oregon, U.S.A.

Now
39 °F

Clear.


Feels Like: 39 °F
Forecast: 47 / 76 °F
Wind: No wind

Location: Roberts Field Airport

Current Time: Sep 1, 2015 at 5:26:52 AM

Latest Report: Sep 1, 2015 at 4:56 AM


Visibility: 10 mi

Pressure: 29.93 "Hg (26.12 "Hg at 1103m altitude)

Humidity: 86%

Dew point: 35 °F

Location of BendLocation

Historic Weather in Bend — Graph

°F

Bend temperature yesterday

Maximum temperature yesterday: 78 °F (at 3:56 PM)
Minimum temperature yesterday: 39 °F (at 5:56 AM)
Average temperature yesterday: 57 °F

Past Weeks' High & Low Weather Summary

 TemperatureHumidityPressure
High94 °F (Aug 19, 3:56 PM)93% (Aug 31, 5:56 AM)30.13 "Hg (Aug 31, 5:56 AM)
Low37 °F (Aug 22, 5:56 AM)10% (Aug 21, 7:56 PM)29.59 "Hg (Aug 29, 3:56 AM)
Average67 °F40%29.94 "Hg
* Reported Aug 17 3:56 AM — Sep 1 3:56 AM, Bend, Weather by CustomWeather, © 2015

Note: Actual official high and low records may vary slightly from our data, if they occured in-between our weather recording intervals... More about our weather records

Advertising

Bend weather history for previous 24 hours

 ConditionsComfort  
Time TempWeatherWind HumidityBarometerVisibility
3:56 AM
Tue, Sep 1
42 °FClear.5 mph85%29.93 "Hg10 mi
2:56 AM44 °FClear.6 mph82%29.92 "Hg10 mi
1:56 AM46 °FClear.3 mph79%29.93 "Hg10 mi
12:56 AM48 °FClear.No wind77%29.94 "Hg10 mi
11:56 PM
Mon, Aug 31
49 °FClear.No wind71%29.95 "Hg10 mi
10:56 PM51 °FClear.No wind71%29.95 "Hg10 mi
9:56 PM57 °FClear.No wind64%29.95 "Hg10 mi
7:56 PM67 °FSunny.9 mph41%29.92 "Hg10 mi
6:56 PM71 °FSunny.14 mph30%29.92 "Hg10 mi
5:56 PM76 °FSunny.16 mph24%29.91 "Hg10 mi
4:56 PM77 °FSunny.15 mph23%29.91 "Hg10 mi
3:56 PM78 °FSunny.8 mph27%29.91 "Hg10 mi
1:56 PM73 °FSunny.3 mph33%29.97 "Hg10 mi
12:56 PM72 °FSunny.7 mph34%30.00 "Hg10 mi
11:56 AM69 °FSunny.7 mph38%30.02 "Hg10 mi
10:56 AM64 °FSunny.5 mph47%30.05 "Hg10 mi
9:56 AM60 °FSunny.6 mph53%30.07 "Hg10 mi
8:56 AM57 °FSunny.6 mph60%30.07 "Hg10 mi
7:56 AM50 °FSunny.5 mph71%30.08 "Hg10 mi
6:56 AM39 °FClear.5 mph89%30.09 "Hg10 mi
5:56 AM39 °FClear.No wind93%30.08 "Hg10 mi
Weather by CustomWeather, © 2015

See weather overviewHow to use our weather pages